Fort Lauderdale, FL

4:26 PM EST on December 09, 2019 (GMT -0500)
Fort Lauderdale Executive

Weather History for KFXE - October, 2019

Change the Weather History Date:

Thursday, October 10, 2019

  Actual Average Record
Temperature  
Mean Temperature 80 °F -  
Max Temperature 87 °F 88 °F 93 °F (1975)
Min Temperature 73 °F 71 °F 63 °F (1954)
Cooling Degree Days 14    
Growing Degree Days 30 (Base 50)    
Moisture  
Dew Point 74 °F    
Average Humidity 87    
Maximum Humidity 100    
Minimum Humidity 63    
Precipitation  
Precipitation 0.08 in - - ()
Sea Level Pressure  
Sea Level Pressure 29.93 in    
Wind  
Wind Speed 4 mph ()    
Max Wind Speed 10 mph    
Max Gust Speed -    
Visibility 10.0 miles    
Events Rain , Thunderstorm    
Averages and records for this station are not official NWS values.
T = Trace of Precipitation, MM = Missing Value Source: Averaged Metar Reports

Daily Weather History Graph

Daily Weather History Graph

Search for Another Location

Airport or City:

Astronomy

Oct. 10, 2019 Rise Set
Actual Time 7:17 AM EDT 6:57 PM EDT
Civil Twilight 6:53 AM EDT 7:21 PM EDT
Nautical Twilight 6:27 AM EDT 7:47 PM EDT
Astronomical Twilight 6:00 AM EDT 8:14 PM EDT
Moon 5:35 PM EDT (10/10) 4:26 AM EDT (10/10)
Length of Visible Light 12h 27m
Length of Day
11h 40m
Waxing Gibbous, 91% of the Moon is Illuminated
Oct 10
Waxing Gibbous
Oct 13
Full
Oct 21
Last Quarter
Oct 27
New
Nov 4
First Quarter

Hourly Weather History & Observations

Time (EDT) Temp. Heat Index Dew Point Humidity Pressure Visibility Wind Dir Wind Speed Gust Speed Precip Events Conditions
12:53 AM 75.9 °F - 75.0 °F 97% 29.97 in 10.0 mi WSW 3.5 mph - 0.00 in   Partly Cloudy
1:10 AM 75.9 °F - 75.0 °F 97% 29.95 in 10.0 mi WNW 3.5 mph - N/A   Mostly Cloudy
1:53 AM 75.9 °F - 75.0 °F 97% 29.94 in 10.0 mi Calm Calm - N/A   Clear
2:35 AM 75.9 °F - 73.9 °F 94% 29.93 in 10.0 mi West 4.6 mph - N/A   Scattered Clouds
2:53 AM 75.0 °F - 75.0 °F 100% 29.93 in 10.0 mi Calm Calm - N/A   Partly Cloudy
3:53 AM 75.0 °F - 73.9 °F 96% 29.91 in 10.0 mi WNW 5.8 mph - N/A   Clear
4:06 AM 75.0 °F - 73.9 °F 96% 29.91 in 10.0 mi WNW 6.9 mph - N/A   Scattered Clouds
4:20 AM 75.0 °F - 73.9 °F 96% 29.91 in 10.0 mi WNW 8.1 mph - N/A   Mostly Cloudy
4:29 AM 73.9 °F - 73.9 °F 100% 29.91 in 10.0 mi WNW 6.9 mph - N/A   Scattered Clouds
4:53 AM 75.0 °F - 73.9 °F 96% 29.92 in 10.0 mi NNW 6.9 mph - N/A   Scattered Clouds
5:53 AM 75.0 °F - 73.0 °F 94% 29.94 in 10.0 mi Calm Calm - 0.00 in   Mostly Cloudy
6:00 AM 75.0 °F - 73.9 °F 96% 29.93 in 10.0 mi SSW 3.5 mph - N/A   Scattered Clouds
6:37 AM 75.0 °F - 73.9 °F 96% 29.94 in 10.0 mi NNW 3.5 mph - N/A   Scattered Clouds
6:53 AM 75.0 °F - 73.9 °F 96% 29.95 in 10.0 mi NW 3.5 mph - N/A   Partly Cloudy
7:53 AM 75.0 °F - 73.9 °F 96% 29.94 in 10.0 mi NW 4.6 mph - N/A   Clear
8:45 AM 77.0 °F - 75.0 °F 94% 29.96 in 10.0 mi West 6.9 mph - N/A   Partly Cloudy
8:53 AM 77.0 °F - 75.0 °F 94% 29.96 in 10.0 mi WNW 5.8 mph - N/A   Scattered Clouds
9:53 AM 79.0 °F - 75.0 °F 88% 29.96 in 10.0 mi NNW 5.8 mph - N/A   Partly Cloudy
10:53 AM 82.0 °F 87.9 °F 73.9 °F 76% 29.97 in 10.0 mi North 6.9 mph - N/A   Scattered Clouds
11:53 AM 84.9 °F 92.1 °F 73.9 °F 69% 29.96 in 10.0 mi Variable 6.9 mph - N/A   Scattered Clouds
12:53 PM 84.9 °F 92.1 °F 73.9 °F 69% 29.94 in 10.0 mi Variable 6.9 mph - N/A   Scattered Clouds
1:53 PM 86.0 °F 92.2 °F 72.0 °F 63% 29.92 in 10.0 mi NE 9.2 mph - N/A   Scattered Clouds
2:53 PM 82.0 °F 91.0 °F 78.1 °F 88% 29.91 in 10.0 mi NE 5.8 mph - 0.07 in Rain Light Rain
3:34 PM 82.0 °F 87.9 °F 73.9 °F 76% 29.90 in 10.0 mi NE 6.9 mph - 0.00 in Thunderstorm Thunderstorm
3:53 PM 82.0 °F 87.9 °F 73.9 °F 76% 29.90 in 10.0 mi NNW 8.1 mph - 0.00 in Thunderstorm Mostly Cloudy
4:53 PM 82.0 °F 87.9 °F 73.9 °F 76% 29.90 in 10.0 mi NE 10.4 mph - 0.01 in Thunderstorm Scattered Clouds
5:43 PM 81.0 °F 85.8 °F 73.0 °F 77% 29.89 in 10.0 mi North 5.8 mph - 0.00 in   Scattered Clouds
5:53 PM 81.0 °F 86.2 °F 73.9 °F 79% 29.90 in 10.0 mi NNE 10.4 mph - 0.00 in   Scattered Clouds
6:53 PM 80.1 °F 84.2 °F 73.0 °F 79% 29.91 in 10.0 mi NNE 6.9 mph - N/A   Scattered Clouds
7:53 PM 80.1 °F 84.5 °F 73.9 °F 81% 29.91 in 10.0 mi North 5.8 mph - N/A   Partly Cloudy
8:43 PM 79.0 °F - 73.9 °F 84% 29.92 in 10.0 mi North 4.6 mph - N/A   Mostly Cloudy
8:53 PM 79.0 °F - 73.9 °F 84% 29.93 in 10.0 mi North 4.6 mph - N/A   Scattered Clouds
9:01 PM 79.0 °F - 73.9 °F 84% 29.92 in 10.0 mi Calm Calm - N/A   Scattered Clouds
9:53 PM 80.1 °F 84.2 °F 73.0 °F 79% 29.94 in 10.0 mi NE 3.5 mph - N/A   Scattered Clouds
10:53 PM 79.0 °F - 73.0 °F 82% 29.95 in 10.0 mi NE 8.1 mph - 0.00 in Rain Light Rain
11:53 PM 80.1 °F 84.2 °F 73.0 °F 79% 29.95 in 10.0 mi NE 10.4 mph - 0.00 in   Partly Cloudy